Carson City, NV

3:24 AM PST on January 23, 2017 (GMT -0800)
Carson

Weather History for KCXP - August, 2013

Change the Weather History Date:

Wednesday, August 7, 2013

  Actual Average Record
Temperature  
Mean Temperature 73 °F -  
Max Temperature 84 °F 89 °F 93 °F (2012)
Min Temperature 62 °F 50 °F 48 °F (2016)
Cooling Degree Days 8    
Growing Degree Days 23 (Base 50)    
Moisture  
Dew Point 33 °F    
Average Humidity 24    
Maximum Humidity 37    
Minimum Humidity 11    
Precipitation  
Precipitation 0.00 in - - ()
Sea Level Pressure  
Sea Level Pressure 30.10 in    
Wind  
Wind Speed 6 mph (WSW)    
Max Wind Speed 21 mph    
Max Gust Speed 30 mph    
Visibility 10 miles    
Events      
Averages and records for this station are not official NWS values.
T = Trace of Precipitation, MM = Missing Value Source: NWS Daily Summary

Daily Weather History Graph

Daily Weather History Graph

Search for Another Location

Airport or City:

Trip Planner

Search our weather history database for the weather conditions in past years. The results will help you decide how hot, cold, wet, or windy it might be!

Date:

Astronomy

Aug. 07, 2013 Rise Set
Actual Time 6:04 AM PDT 8:03 PM PDT
Civil Twilight 5:35 AM PDT 8:32 PM PDT
Nautical Twilight 4:59 AM PDT 9:08 PM PDT
Astronomical Twilight 4:21 AM PDT 9:46 PM PDT
Moon 6:57 AM PDT (8/7) 8:14 PM PDT (8/7)
Length of Visible Light 14h 57m
Length of Day
13h 58m
New Moon, 1% of the Moon is Illuminated
Aug 7
New Moon
Aug 14
First Quarter
Aug 20
Full
Aug 28
Last Quarter
Sep 5
New

Hourly Weather History & Observations

Time (PDT) Temp. Dew Point Humidity Pressure Visibility Wind Dir Wind Speed Gust Speed Precip Events Conditions
12:15 AM 69.8 °F 39.2 °F 33% 30.11 in 10.0 mi ESE 4.6 mph - N/A   Clear
12:35 AM 68.0 °F 37.4 °F 33% 30.11 in 10.0 mi East 3.5 mph - N/A   Clear
12:55 AM 68.0 °F 37.4 °F 33% 30.11 in 10.0 mi East 6.9 mph - N/A   Clear
1:15 AM 68.0 °F 37.4 °F 33% 30.11 in 10.0 mi ESE 4.6 mph - N/A   Clear
1:35 AM 66.2 °F 37.4 °F 35% 30.11 in 10.0 mi ENE 4.6 mph - N/A   Clear
1:55 AM 66.2 °F 37.4 °F 35% 30.11 in 10.0 mi East 4.6 mph - N/A   Clear
2:15 AM 66.2 °F 37.4 °F 35% 30.11 in 10.0 mi ENE 3.5 mph - N/A   Clear
2:35 AM 64.4 °F 37.4 °F 37% 30.11 in 10.0 mi Calm Calm - N/A   Clear
2:55 AM 64.4 °F 37.4 °F 37% 30.11 in 10.0 mi ENE 4.6 mph - N/A   Clear
3:15 AM 64.4 °F 37.4 °F 37% 30.11 in 10.0 mi NE 3.5 mph - N/A   Clear
3:35 AM 64.4 °F 37.4 °F 37% 30.11 in 10.0 mi East 5.8 mph - N/A   Clear
3:55 AM 64.4 °F 37.4 °F 37% 30.11 in 10.0 mi East 5.8 mph - N/A   Partly Cloudy
4:15 AM 64.4 °F 35.6 °F 34% 30.11 in 10.0 mi East 3.5 mph - N/A   Partly Cloudy
4:35 AM 64.4 °F 35.6 °F 34% 30.11 in 10.0 mi SSE 4.6 mph - N/A   Partly Cloudy
4:55 AM 64.4 °F 35.6 °F 34% 30.11 in 10.0 mi East 5.8 mph - N/A   Scattered Clouds
5:15 AM 62.6 °F 35.6 °F 37% 30.11 in 10.0 mi ESE 3.5 mph - N/A   Scattered Clouds
5:35 AM 62.6 °F 33.8 °F 34% 30.10 in 10.0 mi Calm Calm - N/A   Partly Cloudy
5:55 AM 64.4 °F 35.6 °F 34% 30.11 in 10.0 mi East 5.8 mph - N/A   Scattered Clouds
6:15 AM 62.6 °F 35.6 °F 37% 30.11 in 10.0 mi East 5.8 mph - N/A   Partly Cloudy
6:35 AM 62.6 °F 35.6 °F 37% 30.11 in 10.0 mi East 3.5 mph - N/A   Clear
6:55 AM 66.2 °F 37.4 °F 35% 30.12 in 10.0 mi Calm Calm - N/A   Clear
7:15 AM 66.2 °F 35.6 °F 32% 30.12 in 10.0 mi Calm Calm - N/A   Clear
7:35 AM 68.0 °F 35.6 °F 30% 30.13 in 10.0 mi Calm Calm - N/A   Clear
7:55 AM 68.0 °F 35.6 °F 30% 30.13 in 10.0 mi Calm Calm - N/A   Partly Cloudy
8:15 AM 69.8 °F 35.6 °F 28% 30.13 in 10.0 mi Calm Calm - N/A   Clear
8:35 AM 71.6 °F 35.6 °F 27% 30.14 in 10.0 mi Calm Calm - N/A   Clear
8:55 AM 71.6 °F 33.8 °F 25% 30.14 in 10.0 mi Calm Calm - N/A   Clear
9:15 AM 73.4 °F 33.8 °F 23% 30.14 in 10.0 mi Calm Calm - N/A   Clear
9:35 AM 73.4 °F 33.8 °F 23% 30.13 in 10.0 mi SSE 3.5 mph - N/A   Clear
9:55 AM 75.2 °F 35.6 °F 24% 30.13 in 10.0 mi South 3.5 mph - N/A   Clear
10:15 AM 75.2 °F 35.6 °F 24% 30.13 in 10.0 mi SW 3.5 mph - N/A   Clear
10:35 AM 77.0 °F 30.2 °F 18% 30.13 in 10.0 mi SSW 9.2 mph 17.3 mph N/A   Clear
10:55 AM 77.0 °F 26.6 °F 16% 30.13 in 10.0 mi SW 5.8 mph - N/A   Partly Cloudy
11:15 AM 78.8 °F 24.8 °F 14% 30.13 in 10.0 mi SSW 4.6 mph - N/A   Partly Cloudy
11:35 AM 80.6 °F 24.8 °F 13% 30.12 in 10.0 mi West 11.5 mph 17.3 mph N/A   Clear
11:55 AM 82.4 °F 24.8 °F 12% 30.12 in 10.0 mi SSW 8.1 mph - N/A   Clear
12:15 PM 80.6 °F 24.8 °F 13% 30.11 in 10.0 mi SSW 8.1 mph 16.1 mph N/A   Clear
12:35 PM 82.4 °F 23.0 °F 11% 30.11 in 10.0 mi West 15.0 mph 18.4 mph N/A   Clear
12:55 PM 80.6 °F 26.6 °F 14% 30.10 in 10.0 mi NW 10.4 mph 16.1 mph N/A   Clear
1:15 PM 82.4 °F 28.4 °F 14% 30.10 in 10.0 mi West 11.5 mph 20.7 mph N/A   Clear
1:35 PM 82.4 °F 28.4 °F 14% 30.10 in 10.0 mi WNW 9.2 mph 21.9 mph N/A   Clear
1:55 PM 84.2 °F 28.4 °F 13% 30.09 in 10.0 mi NW 11.5 mph 19.6 mph N/A   Clear
2:15 PM 84.2 °F 30.2 °F 14% 30.09 in 10.0 mi West 15.0 mph 20.7 mph N/A   Clear
2:35 PM 84.2 °F 32.0 °F 15% 30.09 in 10.0 mi West 11.5 mph 23.0 mph N/A   Clear
2:55 PM 84.2 °F 32.0 °F 15% 30.08 in 10.0 mi West 13.8 mph 20.7 mph N/A   Clear
3:15 PM 84.2 °F 32.0 °F 15% 30.07 in 10.0 mi West 12.7 mph 21.9 mph N/A   Clear
3:35 PM 84.2 °F 32.0 °F 15% 30.07 in 10.0 mi West 17.3 mph 25.3 mph N/A   Clear
3:55 PM 82.4 °F 33.8 °F 17% 30.07 in 10.0 mi West 16.1 mph 21.9 mph N/A   Clear
4:15 PM 82.4 °F 35.6 °F 19% 30.07 in 10.0 mi West 15.0 mph 20.7 mph N/A   Clear
4:35 PM 82.4 °F 35.6 °F 19% 30.07 in 10.0 mi WSW 15.0 mph 20.7 mph N/A   Clear
4:55 PM 80.6 °F 37.4 °F 21% 30.07 in 10.0 mi West 17.3 mph 25.3 mph N/A   Clear
5:15 PM 80.6 °F 35.6 °F 20% 30.07 in 10.0 mi WSW 13.8 mph 25.3 mph N/A   Clear
5:35 PM 78.8 °F 35.6 °F 21% 30.07 in 10.0 mi West 13.8 mph 26.5 mph N/A   Clear
5:55 PM 77.0 °F 35.6 °F 22% 30.07 in 10.0 mi West 12.7 mph 26.5 mph N/A   Clear
6:15 PM 77.0 °F 35.6 °F 22% 30.06 in 10.0 mi West 11.5 mph 23.0 mph N/A   Clear
6:35 PM 75.2 °F 32.0 °F 21% 30.07 in 10.0 mi West 16.1 mph 25.3 mph N/A   Clear
6:55 PM 75.2 °F 32.0 °F 21% 30.07 in 10.0 mi West 20.7 mph 29.9 mph N/A   Clear
7:15 PM 75.2 °F 30.2 °F 19% 30.07 in 10.0 mi West 16.1 mph 25.3 mph N/A   Clear
7:35 PM 73.4 °F 30.2 °F 20% 30.07 in 10.0 mi West 18.4 mph 24.2 mph N/A   Clear
7:55 PM 73.4 °F 30.2 °F 20% 30.08 in 10.0 mi West 12.7 mph 20.7 mph N/A   Clear
8:15 PM 71.6 °F 30.2 °F 22% 30.08 in 10.0 mi West 6.9 mph 18.4 mph N/A   Clear
8:35 PM 71.6 °F 30.2 °F 22% 30.09 in 10.0 mi West 8.1 mph - N/A   Clear
8:55 PM 71.6 °F 26.6 °F 19% 30.09 in 10.0 mi West 5.8 mph - N/A   Clear
9:15 PM 69.8 °F 28.4 °F 21% 30.11 in 10.0 mi West 5.8 mph - N/A   Clear
9:35 PM 69.8 °F 28.4 °F 21% 30.12 in 10.0 mi Calm Calm - N/A   Clear
9:55 PM 68.0 °F 28.4 °F 23% 30.12 in 10.0 mi WNW 3.5 mph - N/A   Clear
10:15 PM 68.0 °F 26.6 °F 21% 30.11 in 10.0 mi West 3.5 mph - N/A   Clear
10:35 PM 66.2 °F 28.4 °F 24% 30.12 in 10.0 mi SSW 3.5 mph - N/A   Clear
10:55 PM 68.0 °F 26.6 °F 21% 30.12 in 10.0 mi Calm Calm - N/A   Clear
11:15 PM 64.4 °F 28.4 °F 26% 30.12 in 10.0 mi Calm Calm - N/A   Clear
11:35 PM 64.4 °F 28.4 °F 26% 30.13 in 10.0 mi Calm Calm - N/A   Clear
11:55 PM 68.0 °F 21.2 °F 17% 30.12 in 10.0 mi West 4.6 mph - N/A   Partly Cloudy